TimeCST,TemperatureF,Dew PointF,Humidity,Sea Level PressureIn,VisibilityMPH,Wind Direction,Wind SpeedMPH,Gust SpeedMPH,PrecipitationIn,Events,Conditions,WindDirDegrees,DateUTC
12:35 AM,36.5,10.0,34,30.33,10.0,West,3.5,-,N/A,,Clear,270,2013-03-02 06:35:00
12:55 AM,36.0,9.7,34,30.33,10.0,West,4.6,-,N/A,,Clear,280,2013-03-02 06:55:00
1:15 AM,36.1,11.8,37,30.33,10.0,North,3.5,-,N/A,,Clear,350,2013-03-02 07:15:00
1:35 AM,36.1,11.1,36,30.33,10.0,Calm,Calm,-,N/A,,Clear,0,2013-03-02 07:35:00
1:55 AM,35.2,11.1,37,30.33,10.0,NE,5.8,-,N/A,,Clear,40,2013-03-02 07:55:00
2:15 AM,32.0,10.2,40,30.34,10.0,ENE,5.8,-,N/A,,Clear,70,2013-03-02 08:15:00
2:35 AM,31.8,10.2,41,30.34,10.0,Calm,Calm,-,N/A,,Clear,0,2013-03-02 08:35:00
2:55 AM,31.5,9.5,40,30.34,10.0,Calm,Calm,-,N/A,,Clear,0,2013-03-02 08:55:00
3:15 AM,29.1,11.5,48,30.34,10.0,Calm,Calm,-,N/A,,Clear,0,2013-03-02 09:15:00
3:35 AM,29.1,11.8,49,30.34,10.0,Calm,Calm,-,N/A,,Clear,0,2013-03-02 09:35:00
3:55 AM,27.9,11.1,50,30.35,10.0,Calm,Calm,-,N/A,,Clear,0,2013-03-02 09:55:00
4:15 AM,29.1,10.4,46,30.35,10.0,Calm,Calm,-,N/A,,Clear,0,2013-03-02 10:15:00
4:35 AM,27.5,11.1,50,30.36,10.0,Calm,Calm,-,N/A,,Clear,0,2013-03-02 10:35:00
5:15 AM,26.8,11.1,52,30.37,10.0,West,3.5,-,N/A,,Clear,260,2013-03-02 11:15:00
5:55 AM,27.5,10.4,49,30.39,10.0,Calm,Calm,-,N/A,,Clear,0,2013-03-02 11:55:00
6:35 AM,27.3,10.4,49,30.39,10.0,Calm,Calm,-,N/A,,Clear,0,2013-03-02 12:35:00
6:55 AM,26.4,11.1,53,30.40,10.0,West,4.6,-,N/A,,Clear,280,2013-03-02 12:55:00
7:15 AM,25.2,10.8,54,30.41,10.0,WNW,3.5,-,N/A,,Clear,300,2013-03-02 13:15:00
7:35 AM,25.2,11.1,55,30.43,10.0,WNW,3.5,-,N/A,,Clear,290,2013-03-02 13:35:00
7:55 AM,25.9,12.2,56,30.43,10.0,WNW,3.5,-,N/A,,Clear,300,2013-03-02 13:55:00
8:15 AM,30.6,14.5,51,30.44,10.0,NNW,3.5,-,N/A,,Clear,330,2013-03-02 14:15:00
8:35 AM,34.5,12.9,41,30.44,10.0,NNW,5.8,-,N/A,,Clear,340,2013-03-02 14:35:00
8:55 AM,37.9,13.6,37,30.45,10.0,North,6.9,-,N/A,,Clear,350,2013-03-02 14:55:00
9:15 AM,40.5,14.5,35,30.45,10.0,North,5.8,-,N/A,,Clear,350,2013-03-02 15:15:00
9:35 AM,42.4,14.9,33,30.46,10.0,North,5.8,-,N/A,,Clear,10,2013-03-02 15:35:00
9:55 AM,43.9,15.4,32,30.45,10.0,NNE,3.5,-,N/A,,Clear,20,2013-03-02 15:55:00
10:35 AM,47.3,16.0,29,30.45,10.0,Calm,Calm,-,N/A,,Clear,0,2013-03-02 16:35:00
10:55 AM,48.9,16.2,27,30.44,10.0,Calm,Calm,-,N/A,,Clear,0,2013-03-02 16:55:00
11:35 AM,52.5,17.4,25,30.43,10.0,Calm,Calm,-,N/A,,Clear,0,2013-03-02 17:35:00
11:55 AM,54.5,17.6,23,30.43,10.0,Calm,Calm,-,N/A,,Clear,0,2013-03-02 17:55:00
12:15 PM,57.2,17.2,21,30.42,10.0,Calm,Calm,-,N/A,,Clear,0,2013-03-02 18:15:00
12:35 PM,59.0,17.1,20,30.40,10.0,Calm,Calm,-,N/A,,Clear,0,2013-03-02 18:35:00
12:55 PM,61.2,17.1,18,30.40,10.0,SE,5.8,-,N/A,,Clear,130,2013-03-02 18:55:00
1:15 PM,61.5,18.0,19,30.38,10.0,SE,6.9,-,N/A,,Clear,130,2013-03-02 19:15:00
1:35 PM,62.8,18.5,18,30.37,10.0,SSE,4.6,-,N/A,,Clear,150,2013-03-02 19:35:00
1:55 PM,63.1,16.7,17,30.34,10.0,East,5.8,-,N/A,,Clear,80,2013-03-02 19:55:00
2:15 PM,63.5,17.2,17,30.33,10.0,ESE,5.8,-,N/A,,Clear,120,2013-03-02 20:15:00
3:15 PM,65.7,18.3,16,30.30,10.0,East,5.8,-,N/A,,Clear,100,2013-03-02 21:15:00
3:35 PM,65.8,18.3,16,30.29,10.0,Calm,Calm,-,N/A,,Clear,0,2013-03-02 21:35:00
3:55 PM,66.2,18.5,16,30.28,10.0,North,3.5,-,N/A,,Clear,10,2013-03-02 21:55:00
4:15 PM,66.0,18.1,16,30.27,10.0,Calm,Calm,-,N/A,,Clear,0,2013-03-02 22:15:00
4:35 PM,66.9,19.2,16,30.26,10.0,NE,4.6,-,N/A,,Clear,40,2013-03-02 22:35:00
4:55 PM,66.2,18.7,16,30.26,10.0,Calm,Calm,-,N/A,,Clear,0,2013-03-02 22:55:00
5:15 PM,66.6,18.9,16,30.25,10.0,North,3.5,-,N/A,,Clear,350,2013-03-02 23:15:00
5:35 PM,67.1,19.0,16,30.25,10.0,Calm,Calm,-,N/A,,Clear,0,2013-03-02 23:35:00
5:55 PM,66.4,19.2,16,30.25,10.0,ESE,3.5,-,N/A,,Clear,110,2013-03-02 23:55:00
6:15 PM,65.5,19.0,17,30.24,10.0,East,4.6,-,N/A,,Clear,100,2013-03-03 00:15:00
6:35 PM,64.4,19.0,18,30.24,10.0,East,3.5,-,N/A,,Clear,90,2013-03-03 00:35:00
6:55 PM,61.7,18.3,19,30.24,10.0,East,4.6,-,N/A,,Clear,90,2013-03-03 00:55:00
8:15 PM,53.2,17.4,24,30.23,10.0,ESE,4.6,-,N/A,,Clear,110,2013-03-03 02:15:00
8:35 PM,51.1,17.4,26,30.23,10.0,ESE,6.9,-,N/A,,Clear,120,2013-03-03 02:35:00
9:15 PM,48.2,17.6,30,30.23,10.0,SE,6.9,-,N/A,,Clear,140,2013-03-03 03:15:00
9:35 PM,46.4,17.4,31,30.22,10.0,SE,6.9,-,N/A,,Clear,140,2013-03-03 03:35:00
9:55 PM,45.1,17.1,33,30.23,10.0,Calm,Calm,-,N/A,,Clear,0,2013-03-03 03:55:00
10:15 PM,43.5,15.8,33,30.23,10.0,Calm,Calm,-,N/A,,Clear,0,2013-03-03 04:15:00
10:35 PM,42.1,15.8,35,30.22,10.0,SSW,5.8,-,N/A,,Clear,200,2013-03-03 04:35:00
10:55 PM,41.4,15.8,36,30.21,10.0,South,5.8,-,N/A,,Clear,190,2013-03-03 04:55:00
11:15 PM,41.4,15.6,35,30.20,10.0,Calm,Calm,-,N/A,,Clear,0,2013-03-03 05:15:00
11:35 PM,41.9,15.4,34,30.20,10.0,Calm,Calm,-,N/A,,Clear,0,2013-03-03 05:35:00
11:55 PM,41.5,15.4,35,30.19,10.0,Calm,Calm,-,N/A,,Clear,0,2013-03-03 05:55:00